ARIANE 42P DEB, 44508

Orbit data source: Space-Track

ARIANE 42P DEB, 44508 is space debris in LEO originally from a launch on Mon, 10 Aug 1992 UTC launched from the French Guiana (FRGUI). Debris objects in space refer to the collection of defunct objects orbiting the Earth. Examples of debris include non-operational satellites, rocket bodies, and fragments generated from explosions, collisions, or faulty payload assembly.

Loading next visibility...
Identifier
44508, 1992-052F
Orbit
LEO
Country
Flag of FRFR
Related business
Manufacturer
ArianeGroup
Mission
Spacecraft
Bus & Motor
Unknown
Mass
Unknown
Launch date (UTC)
1992-08-10 (33 years ago)
Launch vehicle
Unknown
Launch site
French Guiana (FRGUI)
Object type
Payload
Rocket body
Debris
Shape & HBR
Unknown shape, 0.2 m
Radar Cross Section
Small (<0.1 m²)

Expand to show TLE details & history
Last TLE update: 2 days ago

TLE from 2 days ago
0 ARIANE 42P DEB
1 44508U 92052F   25308.50339732  .00002358  00000-0  89332-2 0  9994
2 44508  66.0239 119.2521 0369172  30.8192 331.3935 12.72468100 74572
Epoch: 2025-11-04T12:04Z
TLE epoch observation values (Epoch: 2025-11-04T12:04:53.528Z)
Latitude
-0.00003°
Longitude
-105.96043°
Altitude
1,125.137 km
Speed
7.406 km/s
True Right ascension
07h 57m 00s
True Declination
0° 00' 00"
Sunlit
Object was in daylight at epoch
Visualization orbit readout
Latitude
Unknown
Longitude
Unknown
Altitude
Unknown
Speed
Unknown
Apparent Right ascension
Unknown
Apparent Declination
Unknown
Sunlit
N/A
Visualization observer readout
Local Sidereal Time
16:18:41
Azimuth
Unknown
Elevation
Unknown
Doppler factor
Unknown
Orbital elements
Apogee altitude
1,656.527 km
Perigee altitude
1,084.414 km
Semi-major axis
7,748.608 km
Eccentricity
0.03692
Inclination
66.0239°
RAAN
119.2521°
Arg. of periapsis
30.8192°
True anomaly
329.28313°
Mean anomaly
331.3935°
Eccentric anomaly
330.34701°
Mean motion
3.18205 °/min
Orbital period
113.13 mins
BSTAR
0.0089332
Loading maneuver chart data...
Computing Atmospheric mass density...
Loading historical data...
Loading historical data...
Loading historical data...
Loading historical data...
Loading historical data...
Loading historical data...
Loading historical data...

Documentation

Showing up to 5 results
|